[[{"header":{"parameterUnit":"m.s-1","parameterCategory":2,"la1":30.2991,"la2":30.254,"lo1":-89.0895,"lo2":-89.0444,"dy":0.0017,"dx":0.0017,"nx":28,"ny":28,"refTime":"2025-06-06T03:00:00:Z","depth":"0","parameterNumber":2,"parameterNumberName":"U-component_of_CURRENTS"},"data":[0,0,0,0,0,0,0,0,0,0,0,0,0,0,0,0,0,0,0,0,0,0,0,0,0,0,0,0,0,0,0,0,0,0,0,0,0,0,0,0,0,0,0,0,0,0,0,0,0,0,0,0,0,0,0,0,0,0,0.1932,0.1933,0,0.2004,0.2004,0.2005,0.2073,0.2074,0.2075,0.2076,0.2014,0.2011,0.2009,0,0,0,0,0,0,0,0,0,0,0,0,0,0.1813,0.1815,0.1932,0.1933,0.1934,0.2003,0.2004,0.2005,0.2073,0.2074,0.2075,0.2077,0.2015,0.2012,0.2009,0,0,0,0,0,0,0,0,0,0,0,0,0,0.1872,0.1816,0.1932,0.1977,0.1982,0.2003,0.2004,0.2006,0.2073,0.2074,0.2076,0.2077,0.2016,0.2012,0.2008,0.1956,0,0,0.1996,0.1995,0,0,0,0,0,0,0,0,0.1869,0.1876,0.1969,0.1974,0.1979,0.2032,0.194,0.1983,0.2073,0.2037,0.2076,0.2078,0.2007,0.2004,0.2015,0.1953,0.1951,0.1996,0.1994,0.1992,0.1991,0,0,0,0,0,0,0,0.1865,0.1873,0.196,0.197,0.1976,0.1979,0.199,0.1949,0.201,0.2041,0.2046,0.2055,0.2009,0.2019,0.2013,0.195,0.1996,0.1993,0.1991,0.1989,0.1855,0.1854,0,0,0,0,0,0,0.1858,0.187,0.1957,0.1962,0.1927,0.1981,0.1992,0.2013,0.2014,0.2017,0.2053,0.2058,0.2024,0.2018,0.2011,0.1954,0.1992,0.1989,0.1986,0.1857,0.1855,0.1854,0,0,0,0,0,0,0.1856,0.1866,0.1954,0.1917,0.1929,0.1982,0.2004,0.2013,0.2024,0.2025,0.2026,0.2055,0.2025,0.2017,0.199,0.1952,0.1987,0.1983,0.1858,0.1856,0.1854,0.1835,0,0,0,0,0,0,0.1852,0.1865,0.1884,0.1917,0.1931,0.1957,0.2003,0.2014,0.2028,0.2034,0.2025,0.2022,0.2026,0.1996,0.1986,0.1947,0.198,0.186,0.1857,0.1855,0.1837,0.1833,0.1829,0,0,0,0,0,0.1848,0.1843,0.1885,0.1896,0.1954,0.1956,0.1962,0.2003,0.2026,0.202,0.2032,0.2023,0.1973,0.1992,0.1981,0.194,0.1861,0.1858,0.1855,0.1839,0.1833,0.1829,0,0,0,0,0,0,0.178,0.1852,0.1897,0.1912,0.1937,0.1968,0.1958,0.1993,0.1999,0.2001,0.201,0.2007,0.1971,0.1953,0.1974,0.1894,0.1911,0.1906,0.1903,0.1897,0.1893,0.1888,0.1977,0,0,0,0,0,0.1782,0.1818,0.1864,0.188,0.1878,0.192,0.1929,0.1959,0.1969,0.1976,0.1973,0.1962,0.1948,0.1925,0.191,0.1854,0.1853,0.1819,0.1814,0.1811,0.1799,0.1763,0.1755,0.1844,0.1844,0.1844,0,0,0.1759,0.1806,0.1826,0.1872,0.1885,0.1873,0.1927,0.1924,0.1922,0.1959,0.1934,0.1947,0.1934,0.1898,0.1875,0.1876,0.1792,0.1807,0.1805,0.1794,0.176,0.1751,0.1743,0.1842,0.1843,0.1843,0,0,0.1703,0.1763,0.1761,0.1781,0.1811,0.1832,0.1827,0.1851,0.1865,0.1854,0.1887,0.1886,0.1843,0.1845,0.1836,0.1788,0.1781,0.1768,0.1726,0.1692,0.1685,0.1678,0.17,0.1696,0.1753,0.1753,0.1753,0,0.1666,0.1702,0.1752,0.1742,0.1754,0.1804,0.178,0.1789,0.1811,0.1813,0.1835,0.1822,0.1818,0.1788,0.1785,0.1777,0.1773,0.1751,0.1687,0.168,0.1674,0.1698,0.1693,0.1752,0.1752,0.1752,0.1752,0,0.1605,0.1643,0.1623,0.1653,0.1654,0.1647,0.1666,0.1664,0.169,0.1716,0.1706,0.1728,0.1726,0.1718,0.1737,0.1686,0.1708,0.1699,0.1704,0.1664,0.1692,0.1687,0.175,0.1751,0.1751,0.1751,0,0,0.15,0.1574,0.1575,0.1589,0.1622,0.1605,0.1584,0.1588,0.1583,0.1602,0.1604,0.1596,0.1636,0.1629,0.1655,0.1626,0.1602,0.1636,0.1634,0.1665,0.156,0.1639,0.1643,0.1574,0.1572,0.1571,0.1612,0,0.1442,0.1439,0.149,0.1469,0.1455,0.1504,0.1481,0.149,0.1519,0.1528,0.1557,0.1567,0.1591,0.1609,0.1581,0.1613,0.1581,0.1594,0.1587,0.1588,0.1668,0.1636,0.1644,0.1685,0.1608,0.1607,0.1606,0,0.1359,0.1388,0.1365,0.1408,0.1398,0.1387,0.1385,0.138,0.1407,0.1435,0.146,0.1505,0.1513,0.1528,0.1525,0.1531,0.153,0.1541,0.1542,0.1613,0.1656,0.1703,0.1679,0.1702,0.1599,0.16,0.16,0,0.1253,0.1294,0.1285,0.1297,0.133,0.132,0.1333,0.1348,0.1345,0.1393,0.1416,0.1439,0.1472,0.1457,0.1526,0.1505,0.1533,0.1506,0.1572,0.158,0.1584,0.1596,0.1582,0.1453,0.1453,0.1453,0.1453,0,0.1176,0.1169,0.1244,0.1233,0.1214,0.1251,0.1224,0.1253,0.1287,0.1291,0.1368,0.1398,0.1444,0.1493,0.1513,0.1569,0.1522,0.1563,0.1581,0.1584,0.1594,0.1613,0.1594,0.1454,0.1454,0.1454,0.1453,0,0.1054,0.1111,0.1095,0.1144,0.116,0.1135,0.1171,0.1165,0.1211,0.1232,0.125,0.1355,0.1442,0.152,0.1548,0.1572,0.1591,0.1625,0.1671,0.1692,0.1755,0.1734,0.1584,0.1571,0.1679,0.1681,0.1682,0,0.0992,0.0975,0.1015,0.1025,0.1056,0.1053,0.1062,0.1112,0.1125,0.1209,0.1224,0.1337,0.1427,0.1567,0.165,0.1731,0.1662,0.1762,0.1701,0.1762,0.1749,0.1608,0.1597,0.1714,0.1715,0.1717,0.1718,0,0.0877,0.089,0.0901,0.0932,0.0949,0.0959,0.0993,0.0989,0.1054,0.1097,0.1192,0.1277,0.1461,0.1601,0.1752,0.1782,0.172,0.1794,0.1808,0.1736,0.1621,0.162,0.173,0.1731,0.173,0.1729,0.1728,0.1728,0.0796,0.0789,0.0823,0.085,0.0871,0.0897,0.0894,0.0944,0.0972,0.1055,0.1148,0.1287,0.153,0.1759,0.1799,0.1923,0.1794,0.1903,0.1866,0.1713,0.1699,0.1881,0.1931,0.1931,0.1931,0.1931,0.1931,0,0.0716,0.0746,0.0759,0.0796,0.0803,0.0842,0.087,0.0875,0.0919,0.1034,0.1127,0.1405,0.1603,0.1787,0.2001,0.2008,0.1873,0.1993,0.1784,0.1767,0.1908,0.1916,0.2024,0.2024,0.2024,0.2024,0.2024,0.2024,0.069,0.0694,0.0723,0.0741,0.0763,0.0769,0.0782,0.081,0.0882,0.104,0.1201,0.1352,0.1684,0.1966,0.2096,0.2061,0.1925,0.1849,0.1825,0.1956,0.1944,0.1932,0.1936,0.2046,0.2046,0.1633,0.163,0.1628]},{"header":{"parameterUnit":"m.s-1","parameterCategory":2,"la1":30.2991,"la2":30.254,"lo1":-89.0895,"lo2":-89.0444,"dy":0.0017,"dx":0.0017,"nx":28,"ny":28,"refTime":"2025-06-06T03:00:00:Z","depth":"0","parameterNumber":3,"parameterNumberName":"V-component_of_CURRENTS"},"data":[0,0,0,0,0,0,0,0,0,0,0,0,0,0,0,0,0,0,0,0,0,0,0,0,0,0,0,0,0,0,0,0,0,0,0,0,0,0,0,0,0,0,0,0,0,0,0,0,0,0,0,0,0,0,0,0,0,0,0.0009,0.0008,0,-0.0,0.0,0.0001,0.0028,0.0028,0.0029,0.0029,0.0042,0.0042,0.0042,0,0,0,0,0,0,0,0,0,0,0,0,0,0.0073,0.0072,0.0009,0.0008,0.0007,-0.0,0.0,0.0001,0.0028,0.0028,0.0029,0.0029,0.0042,0.0042,0.0042,0,0,0,0,0,0,0,0,0,0,0,0,0,0.0061,0.0072,0.0009,0.0013,0.0013,-0.0001,0.0,0.0001,0.0028,0.0028,0.0029,0.0029,0.0041,0.0042,0.0042,0.0045,0,0,0.0044,0.0044,0,0,0,0,0,0,0,0,0.0062,0.006,0.0014,0.0013,0.0012,0.0007,0.0027,0.0014,0.0028,0.0032,0.0029,0.0029,0.0026,0.0028,0.0039,0.0046,0.0046,0.0044,0.0044,0.0045,0.0045,0,0,0,0,0,0,0,0.0063,0.0061,0.0015,0.0012,0.0011,0.0022,0.0022,0.0026,0.0037,0.0032,0.0032,0.0016,0.0027,0.0038,0.0039,0.0047,0.0044,0.0044,0.0045,0.0045,0.006,0.006,0,0,0,0,0,0,0.0044,0.0061,0.0015,0.0013,0.0027,0.002,0.002,0.0016,0.0036,0.0036,0.0016,0.0017,0.0038,0.0039,0.004,0.006,0.0045,0.0045,0.0045,0.006,0.006,0.006,0,0,0,0,0,0,0.0046,0.0041,0.0015,0.0029,0.0025,0.0018,0.0015,0.0016,0.0023,0.0022,0.0025,0.002,0.0038,0.0039,0.0054,0.006,0.0045,0.0046,0.006,0.006,0.006,0.0089,0,0,0,0,0,0,0.0048,0.0042,0.0039,0.0028,0.0024,0.0004,0.0013,0.0015,0.0009,0.0011,0.0026,0.0028,0.0038,0.0054,0.0055,0.006,0.0046,0.006,0.006,0.006,0.0088,0.009,0.0092,0,0,0,0,0,0.0051,0.0056,0.0039,0.0033,0.0019,0.0003,0.0003,0.0004,0.0009,0.0013,0.0032,0.0028,0.0055,0.0055,0.0056,0.0061,0.006,0.006,0.006,0.0087,0.009,0.0092,0,0,0,0,0,0,0.0092,0.0057,0.004,0.0036,0.0011,0.0004,0.0007,0.0001,0.002,0.0025,0.0036,0.0039,0.0055,0.005,0.0049,0.0064,0.0053,0.0054,0.0073,0.0076,0.0078,0.0063,0.0047,0,0,0,0,0,0.0092,0.0084,0.0047,0.0042,0.0029,0.0015,0.001,0.0003,0.0009,0.0017,0.0028,0.004,0.0056,0.006,0.0071,0.0079,0.0064,0.008,0.0082,0.0084,0.0072,0.006,0.006,0.0061,0.0061,0.0061,0,0,0.0101,0.0083,0.0077,0.0049,0.0036,0.0027,0.0016,0.0003,0.0008,0.0014,0.0041,0.0049,0.0061,0.0079,0.0084,0.0076,0.0078,0.0084,0.0086,0.0072,0.0061,0.006,0.006,0.0061,0.0061,0.0061,0,0,0.0119,0.0103,0.0097,0.0078,0.0043,0.0036,0.0027,0.0012,0.002,0.003,0.0045,0.005,0.0073,0.0082,0.009,0.0103,0.0092,0.0108,0.0106,0.0096,0.0096,0.0095,0.0085,0.0084,0.0106,0.0106,0.0107,0,0.0125,0.0117,0.0093,0.0083,0.007,0.0039,0.0032,0.0037,0.0033,0.0037,0.0039,0.0065,0.0072,0.0092,0.0102,0.0106,0.0102,0.0101,0.0099,0.0098,0.0097,0.0087,0.0084,0.0108,0.0108,0.0108,0.0107,0,0.0137,0.0124,0.0123,0.0099,0.0089,0.0076,0.006,0.0059,0.006,0.0058,0.007,0.0079,0.0088,0.0095,0.0107,0.0107,0.0108,0.0107,0.0094,0.0099,0.0087,0.0085,0.011,0.0109,0.0109,0.0109,0,0,0.0151,0.0131,0.0126,0.0119,0.0093,0.0087,0.0092,0.0083,0.0087,0.0084,0.0089,0.011,0.0099,0.0105,0.0112,0.0102,0.0097,0.0104,0.0103,0.0096,0.008,0.0076,0.0073,0.0105,0.0105,0.0104,0.0079,0,0.0156,0.0146,0.0137,0.0134,0.0125,0.0107,0.0113,0.0105,0.0106,0.0106,0.0099,0.0109,0.011,0.0112,0.0104,0.0106,0.009,0.0104,0.0074,0.0073,0.007,0.0069,0.0091,0.007,0.0076,0.0075,0.0075,0,0.0168,0.0156,0.0147,0.0142,0.0137,0.0141,0.0138,0.0132,0.0123,0.0123,0.0118,0.0116,0.011,0.0101,0.0089,0.0104,0.0086,0.0078,0.0077,0.0056,0.0063,0.0064,0.0065,0.0019,0.0071,0.0071,0.0071,0,0.019,0.0173,0.0168,0.0161,0.0143,0.0151,0.0147,0.0139,0.0138,0.0127,0.0129,0.0119,0.0112,0.0096,0.0086,0.0089,0.0065,0.0064,0.0036,0.0036,0.0037,0.0038,-0.0012,0.0029,0.0029,0.0029,0.0029,0,0.0206,0.0205,0.018,0.0175,0.0177,0.0161,0.017,0.0161,0.0148,0.015,0.0135,0.0147,0.011,0.0101,0.0085,0.006,0.0063,0.0028,0.0026,0.0049,0.0051,-0.0004,-0.0037,0.0028,0.0029,0.0029,0.0029,0,0.023,0.0213,0.0202,0.0182,0.0188,0.0182,0.019,0.0192,0.0175,0.0176,0.0172,0.0162,0.0153,0.012,0.0086,0.0058,0.0015,0.0017,0.0046,0.0048,-0.0026,-0.0058,-0.0132,-0.0111,-0.0023,-0.0024,-0.0024,0,0.0245,0.0234,0.0205,0.0207,0.0204,0.0205,0.0212,0.0204,0.0213,0.0203,0.0211,0.0191,0.0211,0.016,0.0094,0.0046,0.0009,0.0012,0.0007,-0.0037,-0.0074,-0.0097,-0.0074,0.0025,0.0025,0.0025,0.0025,0,0.0256,0.0233,0.0216,0.0218,0.0231,0.0236,0.0256,0.0269,0.0252,0.027,0.0292,0.0304,0.0245,0.022,0.0128,0.0083,-0.0007,0.0012,-0.004,-0.0053,-0.0077,-0.0053,0.0047,0.0026,0.0026,0.0026,0.0026,0.0026,0.0258,0.0244,0.0225,0.0232,0.0245,0.0269,0.0294,0.0324,0.0348,0.0392,0.0377,0.0452,0.0372,0.0262,0.015,-0.0015,-0.0009,-0.0045,-0.0083,-0.0104,-0.0081,0.0017,-0.0002,-0.0002,-0.0002,-0.0003,-0.0003,0,0.0258,0.0251,0.0254,0.0261,0.028,0.0288,0.0324,0.0357,0.0413,0.0503,0.0544,0.0631,0.0486,0.0336,0.0093,-0.0059,-0.0098,-0.0136,-0.0161,-0.0131,-0.0049,-0.0043,-0.0064,-0.0064,-0.0064,-0.0064,-0.0064,-0.0064,0.0262,0.0259,0.0261,0.0296,0.0308,0.0347,0.0371,0.0429,0.0514,0.0692,0.084,0.0948,0.0942,0.0329,-0.0038,-0.0142,-0.0214,-0.0268,-0.0278,-0.0233,-0.0227,-0.0221,-0.0223,-0.0282,-0.0282,-0.0311,-0.0311,-0.0312]}],[{"header":{"parameterUnit":"m.s-1","parameterCategory":2,"la1":30.2991,"la2":30.254,"lo1":-89.0895,"lo2":-89.0444,"dy":0.0017,"dx":0.0017,"nx":28,"ny":28,"refTime":"2025-06-06T03:00:00:Z","depth":"2","parameterNumber":2,"parameterNumberName":"U-component_of_CURRENTS"},"data":[0,0,0,0,0,0,0,0,0,0,0,0,0,0,0,0,0,0,0,0,0,0,0,0,0,0,0,0,0,0,0,0,0,0,0,0,0,0,0,0,0,0,0,0,0,0,0,0,0,0,0,0,0,0,0,0,0,0,0.1493,0.1491,0,0.1412,0.1412,0.1411,0.1476,0.1478,0.148,0.1482,0.1553,0.1553,0.1552,0,0,0,0,0,0,0,0,0,0,0,0,0,0.1506,0.1507,0.1493,0.1491,0.149,0.1412,0.1412,0.1411,0.1475,0.1478,0.1481,0.1483,0.1553,0.1553,0.1552,0,0,0,0,0,0,0,0,0,0,0,0,0,0.1476,0.1507,0.1493,0.1508,0.1509,0.1413,0.1412,0.1411,0.1475,0.1478,0.1481,0.1485,0.1553,0.1553,0.1552,0.1483,0,0,0.1551,0.1551,0,0,0,0,0,0,0,0,0.1478,0.1476,0.1508,0.1507,0.1507,0.1453,0.1442,0.1441,0.1474,0.1493,0.1482,0.1486,0.1527,0.1529,0.1512,0.1487,0.149,0.1551,0.1551,0.1551,0.1551,0,0,0,0,0,0,0,0.148,0.1479,0.1467,0.1506,0.1505,0.1451,0.1454,0.1441,0.1499,0.1492,0.1495,0.1476,0.153,0.1512,0.1515,0.1491,0.1551,0.1551,0.1551,0.1551,0.1509,0.1509,0,0,0,0,0,0,0.1486,0.1482,0.1469,0.1464,0.1494,0.1449,0.1451,0.1471,0.1496,0.1501,0.1473,0.1479,0.1511,0.1515,0.1518,0.156,0.1551,0.1551,0.1551,0.151,0.1509,0.1508,0,0,0,0,0,0,0.1487,0.1487,0.1472,0.1464,0.1458,0.1446,0.1467,0.1468,0.1512,0.148,0.1489,0.1524,0.1514,0.1518,0.1593,0.1559,0.1551,0.155,0.1511,0.151,0.1509,0.1566,0,0,0,0,0,0,0.1488,0.1489,0.1534,0.1466,0.1458,0.1477,0.1463,0.1464,0.1488,0.1498,0.1524,0.153,0.1517,0.1594,0.1592,0.1558,0.155,0.1513,0.1511,0.1509,0.1565,0.1567,0.1568,0,0,0,0,0,0.149,0.1484,0.1538,0.1537,0.1514,0.1478,0.1473,0.1475,0.1489,0.1525,0.156,0.1533,0.1578,0.1596,0.1594,0.1558,0.1513,0.1511,0.1509,0.1565,0.1566,0.1568,0,0,0,0,0,0,0.147,0.1488,0.1545,0.1543,0.1561,0.1489,0.1473,0.1503,0.1549,0.1568,0.1564,0.1574,0.1603,0.1582,0.1601,0.1534,0.1521,0.1519,0.1563,0.1565,0.1566,0.1533,0.155,0,0,0,0,0,0.1501,0.1525,0.1542,0.1539,0.1544,0.1535,0.1528,0.1554,0.1558,0.1582,0.1586,0.1581,0.1572,0.1587,0.157,0.1568,0.1546,0.1526,0.1528,0.1529,0.1497,0.145,0.1445,0.1502,0.1502,0.1502,0,0,0.1468,0.1492,0.1497,0.1543,0.1527,0.1523,0.1541,0.1538,0.1542,0.1579,0.1581,0.1601,0.1577,0.157,0.1574,0.1566,0.1516,0.1527,0.1529,0.1495,0.1448,0.1442,0.1437,0.15,0.15,0.1501,0,0,0.1399,0.1461,0.1474,0.1503,0.1538,0.1526,0.1551,0.1544,0.1563,0.1595,0.1597,0.1632,0.1604,0.1586,0.157,0.1568,0.1528,0.1537,0.1519,0.1476,0.1471,0.1466,0.1502,0.15,0.1535,0.1535,0.1535,0,0.1389,0.142,0.1464,0.1488,0.1484,0.1536,0.1538,0.154,0.1568,0.1567,0.1609,0.157,0.1593,0.1555,0.1562,0.1569,0.1559,0.1528,0.1479,0.1473,0.1467,0.1505,0.1502,0.1537,0.1537,0.1537,0.1536,0,0.1339,0.139,0.1367,0.1436,0.1443,0.1444,0.1464,0.1489,0.1514,0.1514,0.1519,0.1557,0.1536,0.1535,0.1559,0.1506,0.1524,0.1496,0.1483,0.1465,0.1507,0.1503,0.1541,0.154,0.1539,0.1538,0,0,0.1268,0.1337,0.1348,0.1374,0.1435,0.1411,0.1414,0.1419,0.1414,0.1448,0.1432,0.1438,0.1473,0.1456,0.1484,0.1458,0.1471,0.1464,0.146,0.1514,0.1424,0.1483,0.1484,0.1429,0.1427,0.1425,0.1498,0,0.1244,0.1265,0.1317,0.1309,0.13,0.1358,0.1338,0.1355,0.1381,0.1383,0.1407,0.1407,0.1431,0.1462,0.1437,0.1461,0.1448,0.1457,0.1417,0.1417,0.148,0.1475,0.1306,0.1357,0.1493,0.1493,0.1492,0,0.1207,0.1227,0.1221,0.1248,0.125,0.1258,0.125,0.1256,0.1275,0.1306,0.1319,0.135,0.1361,0.1382,0.1372,0.1375,0.1393,0.1403,0.1405,0.1419,0.1463,0.1378,0.1343,0.1484,0.1485,0.1485,0.1486,0,0.1099,0.116,0.1144,0.1157,0.1186,0.1193,0.1211,0.1225,0.1223,0.127,0.1295,0.1297,0.1336,0.1311,0.1386,0.1365,0.1384,0.1358,0.142,0.1428,0.1251,0.1247,0.1307,0.1307,0.1307,0.1306,0.1306,0,0.1045,0.1039,0.1101,0.1087,0.1073,0.1116,0.1103,0.1143,0.118,0.1179,0.1251,0.1278,0.1308,0.1348,0.1372,0.1416,0.1374,0.1409,0.1427,0.1278,0.1275,0.1334,0.1336,0.1309,0.1309,0.1308,0.1308,0,0.0933,0.0979,0.0954,0.0996,0.1018,0.0999,0.1057,0.1054,0.1109,0.1129,0.1148,0.1252,0.1332,0.139,0.1416,0.1423,0.1448,0.1468,0.1351,0.1352,0.1528,0.1532,0.1516,0.1518,0.152,0.1522,0.1523,0,0.0877,0.085,0.0875,0.0884,0.0923,0.0928,0.0944,0.1006,0.1022,0.1112,0.1126,0.1238,0.1313,0.1429,0.1455,0.1513,0.1535,0.141,0.1315,0.1518,0.1538,0.1539,0.154,0.1136,0.1134,0.1132,0.1131,0,0.0765,0.0776,0.0776,0.0797,0.0824,0.0837,0.0885,0.0879,0.0952,0.0999,0.1097,0.1167,0.1294,0.1304,0.1417,0.142,0.1387,0.1382,0.1566,0.1129,0.1169,0.1187,0.1197,0.1116,0.1118,0.1119,0.112,0.112,0.0695,0.0682,0.0702,0.073,0.0753,0.078,0.0783,0.0833,0.0864,0.0927,0.1029,0.1098,0.1123,0.1219,0.1245,0.1287,0.1356,0.1278,0.1277,0.1279,0.1242,0.1284,0.1251,0.1253,0.1255,0.1256,0.1258,0,0.0617,0.0645,0.0654,0.0686,0.0695,0.0738,0.0767,0.076,0.0798,0.0862,0.0939,0.0894,0.0928,0.1002,0.1009,0.1055,0.0989,0.1053,0.091,0.0924,0.0938,0.0877,0.0792,0.0791,0.0791,0.079,0,0,0.0591,0.0591,0.0616,0.0639,0.0664,0.0668,0.068,0.0679,0.0707,0.0727,0.0751,0.0833,0.09,0.0792,0.0813,0.0802,0.0859,0.079,0.115,0.0989,0.1001,0.1047,0.0971,0,0,0,0,0]},{"header":{"parameterUnit":"m.s-1","parameterCategory":2,"la1":30.2991,"la2":30.254,"lo1":-89.0895,"lo2":-89.0444,"dy":0.0017,"dx":0.0017,"nx":28,"ny":28,"refTime":"2025-06-06T03:00:00:Z","depth":"2","parameterNumber":3,"parameterNumberName":"V-component_of_CURRENTS"},"data":[0,0,0,0,0,0,0,0,0,0,0,0,0,0,0,0,0,0,0,0,0,0,0,0,0,0,0,0,0,0,0,0,0,0,0,0,0,0,0,0,0,0,0,0,0,0,0,0,0,0,0,0,0,0,0,0,0,0,-0.0142,-0.0143,0,-0.0228,-0.0228,-0.0229,-0.0234,-0.0234,-0.0234,-0.0233,-0.0145,-0.0143,-0.0141,0,0,0,0,0,0,0,0,0,0,0,0,0,-0.0034,-0.0034,-0.0142,-0.0143,-0.0145,-0.0228,-0.0228,-0.0229,-0.0234,-0.0234,-0.0234,-0.0233,-0.0146,-0.0143,-0.014,0,0,0,0,0,0,0,0,0,0,0,0,0,-0.0087,-0.0035,-0.0141,-0.0165,-0.0168,-0.0228,-0.0228,-0.0229,-0.0234,-0.0234,-0.0234,-0.0233,-0.0147,-0.0143,-0.014,-0.0124,0,0,-0.013,-0.0128,0,0,0,0,0,0,0,0,-0.0084,-0.009,-0.0159,-0.0163,-0.0168,-0.0228,-0.0159,-0.0188,-0.0234,-0.0199,-0.0233,-0.0233,-0.0163,-0.0158,-0.0164,-0.012,-0.0116,-0.0129,-0.0127,-0.0126,-0.0125,0,0,0,0,0,0,0,-0.008,-0.0087,-0.0166,-0.0162,-0.0167,-0.019,-0.0196,-0.0164,-0.0171,-0.0202,-0.0205,-0.023,-0.0162,-0.0167,-0.0162,-0.0114,-0.013,-0.0127,-0.0125,-0.0123,-0.0048,-0.0048,0,0,0,0,0,0,-0.0086,-0.0083,-0.0164,-0.017,-0.0135,-0.0192,-0.0198,-0.0201,-0.0175,-0.0175,-0.023,-0.023,-0.0173,-0.0166,-0.0158,-0.01,-0.0126,-0.0123,-0.0121,-0.0048,-0.0048,-0.0048,0,0,0,0,0,0,-0.0083,-0.0091,-0.0161,-0.0137,-0.0149,-0.0195,-0.0198,-0.0203,-0.0195,-0.02,-0.0194,-0.0216,-0.0173,-0.0163,-0.0109,-0.0098,-0.0121,-0.0118,-0.0048,-0.0048,-0.0048,-0.0006,0,0,0,0,0,0,-0.0079,-0.0089,-0.0089,-0.0137,-0.0151,-0.018,-0.0199,-0.0206,-0.0216,-0.0216,-0.0186,-0.0179,-0.0172,-0.0114,-0.0106,-0.0094,-0.0116,-0.0048,-0.0048,-0.0048,-0.0008,-0.0005,-0.0003,0,0,0,0,0,-0.0074,-0.0069,-0.0087,-0.0098,-0.0149,-0.0181,-0.0188,-0.0215,-0.0216,-0.0206,-0.018,-0.0179,-0.011,-0.011,-0.01,-0.0087,-0.0048,-0.0048,-0.0048,-0.0009,-0.0006,-0.0003,0,0,0,0,0,0,-0.0017,-0.0072,-0.0092,-0.0103,-0.0137,-0.0185,-0.019,-0.0204,-0.018,-0.0172,-0.0158,-0.0148,-0.0105,-0.0101,-0.0103,-0.0072,-0.0087,-0.0085,-0.0061,-0.0057,-0.0055,-0.0075,-0.0113,0,0,0,0,0,-0.0009,-0.0026,-0.0075,-0.0089,-0.0099,-0.0139,-0.0155,-0.0173,-0.0172,-0.0163,-0.0144,-0.0125,-0.0103,-0.0081,-0.0065,-0.0027,-0.0044,-0.0023,-0.002,-0.0018,-0.0031,-0.0043,-0.0042,-0.0048,-0.0048,-0.0048,0,0,-0.0005,-0.0032,-0.0048,-0.008,-0.0106,-0.0117,-0.0143,-0.0163,-0.0161,-0.0153,-0.0119,-0.0107,-0.0092,-0.006,-0.0043,-0.0048,-0.0023,-0.0018,-0.0015,-0.003,-0.0043,-0.0042,-0.0041,-0.0048,-0.0048,-0.0048,0,0,0.0007,-0.0011,-0.0016,-0.0036,-0.0077,-0.0098,-0.0097,-0.0127,-0.0121,-0.0098,-0.0097,-0.0079,-0.0037,-0.0036,-0.0027,0.0,-0.001,0.0006,0.0013,0.0002,0.0003,0.0003,-0.0006,-0.0007,0.001,0.001,0.001,0,0.0016,0.0005,-0.0023,-0.0025,-0.0045,-0.0081,-0.0082,-0.0084,-0.0092,-0.0086,-0.0079,-0.0056,-0.0034,-0.0015,-0.0007,0.0006,0.0001,0.0007,0.0006,0.0006,0.0005,-0.0003,-0.0005,0.0012,0.0012,0.0011,0.0011,0,0.0028,0.0016,0.0016,-0.0001,-0.0013,-0.0026,-0.0042,-0.0037,-0.0036,-0.0049,-0.003,-0.0016,-0.001,-0.0001,0.0015,0.0018,0.0016,0.0012,0.0001,0.0009,-0.0001,-0.0004,0.0015,0.0014,0.0013,0.0013,0,0,0.0049,0.0026,0.0024,0.0018,-0.0004,-0.0013,-0.0,-0.0009,-0.0005,-0.0006,-0.0004,0.0023,0.001,0.0016,0.0023,0.0017,0.0022,0.002,0.0018,0.0016,0.0005,-0.0004,-0.0007,0.0026,0.0026,0.0026,0.0004,0,0.0062,0.0057,0.0048,0.0045,0.004,0.0021,0.0029,0.0021,0.0023,0.0022,0.0013,0.0021,0.0024,0.0028,0.0024,0.0025,0.0015,0.0027,-0.0008,-0.0009,-0.0014,-0.0011,-0.0015,-0.0035,0.0002,0.0001,0.0001,0,0.0086,0.0071,0.0066,0.0055,0.0055,0.0061,0.0059,0.0053,0.0043,0.0046,0.0037,0.0031,0.0028,0.0021,0.001,0.0024,0.0013,0.0003,0.0002,-0.0028,-0.0023,-0.004,-0.0041,-0.0003,-0.0003,-0.0003,-0.0002,0,0.0111,0.0096,0.0089,0.0081,0.0059,0.0074,0.0071,0.0064,0.0064,0.0053,0.0056,0.004,0.0035,0.0018,0.0013,0.0016,-0.001,-0.0011,-0.0039,-0.0039,-0.0065,-0.0067,-0.0042,-0.0042,-0.0042,-0.0042,-0.0042,0,0.0132,0.0132,0.0101,0.0096,0.0099,0.0084,0.0097,0.0092,0.008,0.0079,0.0065,0.0074,0.0035,0.0024,0.0011,-0.0015,-0.0011,-0.0047,-0.0049,-0.0049,-0.0049,-0.0044,-0.0044,-0.0043,-0.0043,-0.0043,-0.0042,0,0.016,0.0139,0.0125,0.0103,0.011,0.0106,0.012,0.0123,0.011,0.0109,0.0106,0.0096,0.0086,0.0047,0.0014,-0.0017,-0.0043,-0.0059,-0.0056,-0.0058,-0.0067,-0.0065,-0.0098,-0.0098,-0.0099,-0.0099,-0.0099,0,0.0176,0.0162,0.0128,0.0129,0.0129,0.0132,0.014,0.0137,0.0147,0.0138,0.0146,0.0126,0.0139,0.0084,0.0014,-0.0039,-0.0044,-0.0095,-0.0102,-0.0076,-0.0075,-0.0071,-0.0069,-0.0114,-0.0114,-0.0114,-0.0115,0,0.0186,0.0163,0.0142,0.0141,0.0157,0.0161,0.0186,0.0199,0.0184,0.0204,0.0225,0.0231,0.0164,0.0109,0.001,-0.0027,-0.0086,-0.0104,-0.0079,-0.0098,-0.0092,-0.009,-0.0087,-0.0118,-0.0117,-0.0117,-0.0117,-0.0117,0.0191,0.0174,0.0149,0.0157,0.017,0.0194,0.0221,0.025,0.0275,0.0303,0.0296,0.0322,0.0197,0.0101,0.0004,-0.01,-0.0095,-0.0137,-0.0136,-0.0134,-0.0131,-0.0126,-0.0157,-0.0157,-0.0157,-0.0157,-0.0157,0,0.0186,0.0179,0.018,0.0185,0.0206,0.0217,0.0251,0.0275,0.0327,0.0378,0.041,0.0317,0.0241,0.0129,-0.0033,-0.0142,-0.0145,-0.0171,-0.0159,-0.0156,-0.0153,-0.0151,-0.0183,-0.0183,-0.0183,-0.0183,0,0,0.0187,0.0182,0.0183,0.022,0.0234,0.0269,0.0293,0.033,0.038,0.0443,0.048,0.0469,0.0307,0.0177,0.0013,-0.0072,-0.0078,-0.0086,-0.0057,-0.0021,-0.0016,-0.0132,-0.0125,0,0,0,0,0]}],[{"header":{"parameterUnit":"m.s-1","parameterCategory":2,"la1":30.2991,"la2":30.254,"lo1":-89.0895,"lo2":-89.0444,"dy":0.0017,"dx":0.0017,"nx":28,"ny":28,"refTime":"2025-06-06T03:00:00:Z","depth":"4","parameterNumber":2,"parameterNumberName":"U-component_of_CURRENTS"},"data":[0,0,0,0,0,0,0,0,0,0,0,0,0,0,0,0,0,0,0,0,0,0,0,0,0,0,0,0,0,0,0,0,0,0,0,0,0,0,0,0,0,0,0,0,0,0,0,0,0,0,0,0,0,0,0,0,0,0,-0.0389,-0.039,0,-0.0389,-0.0389,-0.0388,-0.0377,-0.0377,-0.0377,-0.0377,-0.0439,-0.044,-0.0442,0,0,0,0,0,0,0,0,0,0,0,0,0,-0.0393,-0.0392,-0.0389,-0.039,-0.039,-0.0389,-0.0389,-0.0388,-0.0377,-0.0377,-0.0377,-0.0377,-0.0438,-0.044,-0.0442,0,0,0,0,0,0,0,0,0,0,0,0,0,-0.0388,-0.0392,-0.0389,-0.0387,-0.0387,-0.0389,-0.0389,-0.0388,-0.0377,-0.0377,-0.0377,-0.0377,-0.0438,-0.044,-0.0442,-0.0457,0,0,-0.045,-0.0451,0,0,0,0,0,0,0,0,-0.0389,-0.0388,-0.0387,-0.0387,-0.0387,-0.0386,-0.0413,-0.0415,-0.0377,-0.0377,-0.0377,-0.0377,-0.0429,-0.0432,-0.0426,-0.046,-0.0462,-0.045,-0.0451,-0.0452,-0.0453,0,0,0,0,0,0,0,-0.0389,-0.0388,-0.0386,-0.0387,-0.0387,-0.039,-0.0389,-0.0412,-0.0402,-0.0377,-0.0377,-0.0383,-0.0429,-0.0424,-0.0428,-0.0463,-0.045,-0.0452,-0.0454,-0.0454,-0.061,-0.0613,0,0,0,0,0,0,-0.0395,-0.0388,-0.0386,-0.0386,-0.0392,-0.039,-0.0389,-0.0384,-0.04,-0.0403,-0.0383,-0.0382,-0.042,-0.0425,-0.043,-0.0528,-0.0452,-0.0455,-0.0456,-0.0608,-0.0611,-0.0614,0,0,0,0,0,0,-0.0395,-0.0394,-0.0386,-0.0391,-0.039,-0.039,-0.0384,-0.0384,-0.0386,-0.0404,-0.0407,-0.0388,-0.042,-0.0427,-0.0462,-0.0527,-0.0456,-0.0458,-0.0605,-0.0609,-0.0612,-0.0672,0,0,0,0,0,0,-0.0395,-0.0394,-0.0398,-0.0391,-0.039,-0.0395,-0.0385,-0.0384,-0.0391,-0.039,-0.041,-0.0414,-0.0421,-0.0459,-0.0465,-0.0529,-0.046,-0.0601,-0.0606,-0.0611,-0.0667,-0.0678,-0.0687,0,0,0,0,0,-0.0395,-0.04,-0.0398,-0.0398,-0.0393,-0.0396,-0.0396,-0.0394,-0.0391,-0.0395,-0.0411,-0.0414,-0.0497,-0.0461,-0.0468,-0.0535,-0.0599,-0.0605,-0.0611,-0.0662,-0.0676,-0.0687,0,0,0,0,0,0,-0.0409,-0.04,-0.0397,-0.04,-0.0402,-0.0395,-0.041,-0.04,-0.0412,-0.0415,-0.0428,-0.0434,-0.0517,-0.0505,-0.0466,-0.0599,-0.0557,-0.0565,-0.0595,-0.0607,-0.0617,-0.052,-0.0462,0,0,0,0,0,-0.0413,-0.0413,-0.0407,-0.0414,-0.0421,-0.0416,-0.0419,-0.0409,-0.0417,-0.0421,-0.0449,-0.0485,-0.0546,-0.0553,-0.0609,-0.0643,-0.0593,-0.0699,-0.071,-0.0718,-0.0646,-0.0637,-0.0637,-0.0634,-0.0634,-0.0634,0,0,-0.0412,-0.0419,-0.0412,-0.0417,-0.0425,-0.0431,-0.0418,-0.0423,-0.0432,-0.0429,-0.0478,-0.0535,-0.0572,-0.0643,-0.0676,-0.0632,-0.0705,-0.0726,-0.0732,-0.0654,-0.0642,-0.0642,-0.0641,-0.0638,-0.0637,-0.0636,0,0,-0.0426,-0.0431,-0.0435,-0.0434,-0.0445,-0.0449,-0.0453,-0.0459,-0.0472,-0.0509,-0.0545,-0.0617,-0.068,-0.0724,-0.0751,-0.0841,-0.0786,-0.088,-0.0817,-0.0812,-0.081,-0.0807,-0.0782,-0.0776,-0.0853,-0.0853,-0.0853,0,-0.0443,-0.043,-0.0439,-0.0447,-0.0456,-0.0461,-0.0466,-0.0479,-0.0498,-0.0521,-0.0536,-0.0664,-0.0722,-0.0788,-0.0814,-0.0866,-0.0812,-0.077,-0.0819,-0.0815,-0.0811,-0.0785,-0.0777,-0.0856,-0.0856,-0.0856,-0.0855,0,-0.0436,-0.0437,-0.0449,-0.0462,-0.048,-0.0481,-0.0502,-0.0542,-0.0576,-0.058,-0.0671,-0.0735,-0.0774,-0.0859,-0.0846,-0.0873,-0.0832,-0.086,-0.0773,-0.0814,-0.0786,-0.0777,-0.0862,-0.086,-0.0859,-0.0858,0,0,-0.0449,-0.0445,-0.0449,-0.0456,-0.0478,-0.0493,-0.0546,-0.0583,-0.062,-0.0656,-0.0696,-0.0803,-0.0785,-0.0808,-0.0844,-0.083,-0.0809,-0.0786,-0.0784,-0.073,-0.074,-0.0674,-0.0657,-0.0814,-0.0812,-0.0811,-0.0743,0,-0.0448,-0.0458,-0.0459,-0.048,-0.049,-0.0526,-0.0589,-0.0626,-0.0666,-0.0713,-0.0751,-0.0797,-0.0776,-0.0796,-0.0773,-0.083,-0.0778,-0.082,-0.0729,-0.0725,-0.0637,-0.0643,-0.0805,-0.0736,-0.0734,-0.0732,-0.0731,0,-0.043,-0.0447,-0.0467,-0.0506,-0.0521,-0.0558,-0.0659,-0.0698,-0.0756,-0.0758,-0.0745,-0.0749,-0.0736,-0.0727,-0.0697,-0.0703,-0.0663,-0.0693,-0.0692,-0.0574,-0.0639,-0.068,-0.0715,-0.0716,-0.0717,-0.0718,-0.0719,0,-0.0433,-0.0445,-0.0472,-0.0475,-0.0538,-0.0598,-0.0655,-0.0736,-0.0767,-0.0754,-0.075,-0.0714,-0.0712,-0.0656,-0.0647,-0.0642,-0.0626,-0.0662,-0.0557,-0.0553,-0.0605,-0.0607,-0.0576,-0.0576,-0.0577,-0.0577,-0.0577,0,-0.0414,-0.043,-0.0484,-0.05,-0.0563,-0.0623,-0.0707,-0.0734,-0.0789,-0.0782,-0.0738,-0.0686,-0.0675,-0.0661,-0.0627,-0.055,-0.0591,-0.0497,-0.0514,-0.0643,-0.065,-0.06,-0.0604,-0.0574,-0.0575,-0.0575,-0.0576,0,-0.0395,-0.042,-0.0449,-0.0532,-0.0563,-0.0619,-0.0709,-0.0748,-0.079,-0.0777,-0.0743,-0.0669,-0.0576,-0.0598,-0.0561,-0.0534,-0.0501,-0.0455,-0.0572,-0.0608,-0.0426,-0.0435,-0.0302,-0.0299,-0.0296,-0.0294,-0.0292,0,-0.0375,-0.0402,-0.0467,-0.0479,-0.0517,-0.0603,-0.0653,-0.0721,-0.0722,-0.0727,-0.0682,-0.0612,-0.0535,-0.0438,-0.0443,-0.0388,-0.0372,-0.0375,-0.0371,-0.0358,-0.039,-0.0403,-0.0415,-0.0287,-0.0287,-0.0286,-0.0285,0,-0.0353,-0.0394,-0.0415,-0.0449,-0.0489,-0.051,-0.0574,-0.0572,-0.0624,-0.0673,-0.0549,-0.0487,-0.0394,-0.0321,-0.0305,-0.0264,-0.0404,-0.0345,-0.035,-0.0345,-0.0339,-0.0376,-0.0391,-0.0275,-0.0277,-0.0278,-0.0278,0,-0.0339,-0.0343,-0.0382,-0.0406,-0.0419,-0.04,-0.0448,-0.0437,-0.0462,-0.0489,-0.0426,-0.0357,-0.0345,-0.025,-0.0227,-0.0199,-0.0162,-0.0181,-0.0193,-0.0204,-0.0206,-0.0186,-0.0044,0,0,0,0,0,-0.0314,-0.0321,-0.0333,-0.0339,-0.0335,-0.0351,-0.0375,-0.042,-0.0484,-0.0369,-0.0411,-0.0295,-0.0202,-0.0157,-0.0093,-0.0161,-0.0174,-0.009,-0.0206,-0.0222,-0.0233,-0.0246,0,0,0,0,0,0,-0.0299,-0.0305,-0.032,-0.0272,-0.0262,-0.0253,-0.0257,-0.0293,-0.0239,-0.0294,-0.0215,-0.0284,-0.0169,-0.022,-0.0085,-0.0084,-0.015,-0.0081,-0.008,-0.0215,-0.0226,-0.0235,-0.0252,0,0,0,0,0]},{"header":{"parameterUnit":"m.s-1","parameterCategory":2,"la1":30.2991,"la2":30.254,"lo1":-89.0895,"lo2":-89.0444,"dy":0.0017,"dx":0.0017,"nx":28,"ny":28,"refTime":"2025-06-06T03:00:00:Z","depth":"4","parameterNumber":3,"parameterNumberName":"V-component_of_CURRENTS"},"data":[0,0,0,0,0,0,0,0,0,0,0,0,0,0,0,0,0,0,0,0,0,0,0,0,0,0,0,0,0,0,0,0,0,0,0,0,0,0,0,0,0,0,0,0,0,0,0,0,0,0,0,0,0,0,0,0,0,0,0.0097,0.0097,0,0.01,0.01,0.01,0.0117,0.0117,0.0118,0.0118,0.0134,0.0134,0.0134,0,0,0,0,0,0,0,0,0,0,0,0,0,0.0126,0.0125,0.0097,0.0097,0.0097,0.01,0.01,0.01,0.0117,0.0117,0.0118,0.0119,0.0134,0.0134,0.0134,0,0,0,0,0,0,0,0,0,0,0,0,0,0.0118,0.0125,0.0097,0.0107,0.0108,0.01,0.01,0.01,0.0117,0.0117,0.0118,0.0119,0.0134,0.0134,0.0134,0.0116,0,0,0.0133,0.0133,0,0,0,0,0,0,0,0,0.0119,0.0117,0.0106,0.0107,0.0108,0.011,0.0116,0.0106,0.0116,0.0112,0.0119,0.0119,0.0128,0.0128,0.0124,0.0117,0.0118,0.0133,0.0133,0.0133,0.0133,0,0,0,0,0,0,0,0.0119,0.0117,0.0097,0.0106,0.0107,0.0119,0.0118,0.0114,0.0114,0.0112,0.0114,0.0116,0.0128,0.0125,0.0125,0.0118,0.0133,0.0133,0.0133,0.0133,0.0149,0.0149,0,0,0,0,0,0,0.012,0.0117,0.0096,0.0097,0.0117,0.0118,0.0117,0.0107,0.0114,0.0116,0.0116,0.0117,0.0124,0.0125,0.0126,0.0156,0.0133,0.0133,0.0133,0.0148,0.0149,0.0149,0,0,0,0,0,0,0.012,0.0117,0.0096,0.0109,0.0108,0.0116,0.0105,0.0107,0.0103,0.0117,0.0119,0.011,0.0125,0.0126,0.0133,0.0155,0.0133,0.0133,0.0147,0.0148,0.0149,0.0183,0,0,0,0,0,0,0.012,0.0117,0.0112,0.0109,0.0107,0.0082,0.0105,0.0106,0.0104,0.0106,0.0113,0.0115,0.0126,0.0134,0.0133,0.0154,0.0133,0.0147,0.0148,0.0149,0.0181,0.0185,0.0188,0,0,0,0,0,0.0121,0.0111,0.0112,0.011,0.0099,0.0081,0.008,0.0089,0.0103,0.009,0.0113,0.0115,0.014,0.0134,0.0133,0.0154,0.0146,0.0147,0.0149,0.018,0.0184,0.0188,0,0,0,0,0,0,0.0111,0.0112,0.0112,0.01,0.0087,0.0084,0.0086,0.0084,0.0089,0.0097,0.0114,0.0117,0.0137,0.0132,0.0125,0.0161,0.0146,0.0147,0.017,0.0174,0.0177,0.0142,0.0133,0,0,0,0,0,0.0108,0.0107,0.0097,0.0085,0.0085,0.0083,0.008,0.0075,0.008,0.0082,0.0096,0.0115,0.0139,0.0145,0.0157,0.0164,0.0147,0.0179,0.0182,0.0185,0.0156,0.0154,0.0154,0.0153,0.0153,0.0153,0,0,0.0094,0.0102,0.0095,0.0084,0.0086,0.0062,0.0083,0.007,0.0053,0.0083,0.0085,0.0123,0.0143,0.0168,0.0176,0.0167,0.0183,0.0187,0.0189,0.0158,0.0155,0.0155,0.0155,0.0154,0.0153,0.0153,0,0,0.0077,0.008,0.0077,0.0062,0.0058,0.0051,0.0043,0.0039,0.0046,0.0041,0.0083,0.0126,0.0137,0.0175,0.0191,0.021,0.0202,0.0225,0.0212,0.0212,0.0211,0.0211,0.0212,0.0211,0.0226,0.0226,0.0226,0,0.007,0.0056,0.0068,0.0055,0.0045,0.0042,0.0017,0.0012,0.0009,0.0016,0.0039,0.0111,0.0137,0.0187,0.0206,0.0218,0.0212,0.0201,0.0215,0.0214,0.0213,0.0214,0.0213,0.0227,0.0227,0.0227,0.0227,0,0.0039,0.0028,0.0026,0.0011,-0.0006,-0.0027,-0.0037,-0.0045,-0.0029,-0.0029,0.0024,0.0091,0.0126,0.0169,0.0191,0.0219,0.0217,0.0223,0.0204,0.0215,0.0216,0.0214,0.023,0.0229,0.0229,0.0228,0,0,0.0026,0.0012,0.0009,-0.0005,-0.0029,-0.0051,-0.0071,-0.0089,-0.0088,-0.0061,-0.0043,0.0043,0.0088,0.011,0.0181,0.02,0.0212,0.0205,0.0204,0.0203,0.0209,0.0165,0.0158,0.0222,0.0221,0.0221,0.0222,0,0.0005,-0.0018,-0.0025,-0.0073,-0.0089,-0.0103,-0.012,-0.0141,-0.0121,-0.011,-0.0036,0.0015,0.0063,0.0124,0.014,0.0209,0.0203,0.0211,0.0199,0.0198,0.0154,0.0152,0.0219,0.022,0.022,0.0219,0.0219,0,-0.0031,-0.0032,-0.0064,-0.0098,-0.0105,-0.0139,-0.0153,-0.0164,-0.0158,-0.0132,-0.0082,-0.0036,0.0033,0.0065,0.0134,0.0138,0.0146,0.0187,0.0188,0.0121,0.0147,0.0201,0.0215,0.0215,0.0215,0.0216,0.0216,0,-0.0043,-0.0073,-0.009,-0.0107,-0.0141,-0.0154,-0.0166,-0.0169,-0.0163,-0.0126,-0.0111,-0.0048,0.0016,0.0038,0.011,0.0118,0.0161,0.0182,0.014,0.0138,0.0164,0.0164,0.0162,0.0162,0.0162,0.0162,0.0162,0,-0.0067,-0.0093,-0.0096,-0.0112,-0.0146,-0.0154,-0.0167,-0.017,-0.0148,-0.0144,-0.0105,-0.0081,0.0007,0.004,0.008,0.0106,0.0127,0.0116,0.0125,0.0183,0.0185,0.0164,0.0164,0.0162,0.0162,0.0162,0.0162,0,-0.0092,-0.0096,-0.0125,-0.0141,-0.0155,-0.0172,-0.0186,-0.019,-0.0151,-0.0136,-0.0123,-0.01,-0.0067,0.0001,0.0057,0.0079,0.0113,0.0099,0.0155,0.0171,0.0094,0.0096,0.0049,0.0047,0.0046,0.0045,0.0044,0,-0.0107,-0.0114,-0.0139,-0.0162,-0.0172,-0.0189,-0.0211,-0.0196,-0.0188,-0.0155,-0.016,-0.0136,-0.0123,-0.0061,-0.0016,0.0036,0.0034,0.0067,0.0068,0.0063,0.0077,0.0082,0.0086,0.0041,0.0041,0.004,0.004,0,-0.0126,-0.0128,-0.0146,-0.0171,-0.0205,-0.024,-0.0251,-0.0245,-0.0213,-0.0196,-0.0175,-0.0153,-0.0145,-0.0104,-0.0062,-0.0029,0.007,0.0051,0.0054,0.0055,0.0053,0.007,0.0075,0.0035,0.0035,0.0036,0.0036,0,-0.0138,-0.0157,-0.0163,-0.0193,-0.0233,-0.0261,-0.0271,-0.0265,-0.0255,-0.0198,-0.0212,-0.0184,-0.0163,-0.0146,-0.0114,-0.0075,-0.0078,-0.0031,-0.0023,-0.0017,-0.0039,-0.0051,-0.0113,0,0,0,0,0,-0.015,-0.0167,-0.0185,-0.0222,-0.025,-0.0268,-0.0292,-0.0288,-0.0262,-0.0244,-0.0208,-0.0204,-0.017,-0.018,-0.0156,-0.0174,-0.0087,-0.0144,-0.0031,0.0005,0.0012,-0.0008,0,0,0,0,0,0,-0.0167,-0.0186,-0.0185,-0.0219,-0.0238,-0.0278,-0.0289,-0.028,-0.0262,-0.0227,-0.0224,-0.019,-0.0182,-0.0177,-0.0152,-0.0148,-0.007,-0.0132,-0.0131,0.0002,0.0008,0.0012,-0.0006,0,0,0,0,0]}]]